Tracking 29892 objects as of 21-Nov-2024
HD Live streaming from Space Station
objects crossing your sky now

STARLINK 1055

Track STARLINK 1055 now!
10-day predictions
STARLINK 1055 is classified as:


NORAD ID: 44760
Int'l Code: 2019-074AZ
Perigee: 353.8 km
Apogee: 354.8 km
Inclination: 53.0 °
Period: 91.5 minutes
Semi major axis: 6725 km
RCS: Unknown
Launch date: November 11, 2019
Source: United States (US)
Launch site: AIR FORCE EASTERN TEST RANGE (AFETR)
Your satellite tracking list
Your tracking list is empty




NASA's NSSDC Master Catalog

Two Line Element Set (TLE):
1 44760U 19074AZ  24326.00001157  .00164603  00000-0  11099-2 0  9995
2 44760  53.0013  94.5700 0000676  81.3629 233.0431 15.74110924  5834
Source of the keplerian elements: AFSPC